| time (UTC) | temp F | wind direction | speed MPH | gust MPH | rain 1hr in | rain 24hr in | rain mn in | humidity % | barometer mb |
| 20260504234543 | 60 | 89 | 8.0 | 16.0 | 0.00 | 0.00 | 0.00 | 64 | 1018.7 |
| 20260504233045 | 60 | 89 | 8.0 | 18.0 | 0.00 | 0.00 | 0.00 | 63 | 1018.7 |
| 20260504231544 | 60 | 89 | 8.0 | 19.0 | 0.00 | 0.00 | 0.00 | 63 | 1018.7 |
| 20260504230044 | 60 | 88 | 11.0 | 22.0 | 0.00 | 0.00 | 0.00 | 63 | 1018.7 |
| 20260504224545 | 60 | 87 | 10.0 | 22.0 | 0.00 | 0.00 | 0.00 | 62 | 1018.8 |
| 20260504223047 | 61 | 84 | 10.0 | 16.0 | 0.00 | 0.00 | 0.00 | 62 | 1018.8 |
| 20260504221547 | 61 | 84 | 10.0 | 18.0 | 0.00 | 0.00 | 0.00 | 62 | 1018.7 |
| 20260504220100 | 61 | 79 | 10.0 | 17.0 | 0.00 | 0.00 | 0.00 | 62 | 1018.9 |
| 20260504214556 | 61 | 82 | 7.0 | 16.0 | 0.00 | 0.00 | 0.00 | 62 | 1018.8 |
| 20260504213107 | 61 | 82 | 6.0 | 11.0 | 0.00 | 0.00 | 0.00 | 61 | 1018.8 |
| 20260504211555 | 62 | 82 | 6.0 | 16.0 | 0.00 | 0.00 | 0.00 | 61 | 1018.6 |
| 20260504210045 | 62 | 82 | 9.0 | 19.0 | 0.00 | 0.00 | 0.00 | 61 | 1018.6 |
| 20260504204545 | 62 | 85 | 8.0 | 17.0 | 0.00 | 0.00 | 0.00 | 61 | 1018.4 |
| 20260504203047 | 63 | 86 | 5.0 | 13.0 | 0.00 | 0.00 | 0.00 | 61 | 1018.3 |
| 20260504201547 | 63 | 87 | 4.0 | 12.0 | 0.00 | 0.00 | 0.00 | 61 | 1017.8 |
| 20260504200045 | 64 | 87 | 4.0 | 15.0 | 0.00 | 0.00 | 0.00 | 61 | 1017.8 |
| 20260504194545 | 64 | 87 | 5.0 | 12.0 | 0.00 | 0.00 | 0.00 | 61 | 1017.5 |
| 20260504193058 | 65 | 86 | 5.0 | 10.0 | 0.00 | 0.00 | 0.00 | 61 | 1017.4 |
| 20260504191553 | 66 | 87 | 6.0 | 14.0 | 0.00 | 0.00 | 0.00 | 61 | 1017.3 |
| 20260504190054 | 68 | 87 | 8.0 | 18.0 | 0.00 | 0.00 | 0.00 | 62 | 1017.1 |
| 20260504184545 | 69 | 89 | 9.0 | 17.0 | 0.00 | 0.00 | 0.00 | 62 | 1016.8 |
| 20260504183056 | 70 | 94 | 6.0 | 15.0 | 0.00 | 0.00 | 0.00 | 62 | 1016.6 |
| 20260504181552 | 70 | 103 | 9.0 | 16.0 | 0.00 | 0.00 | 0.00 | 63 | 1016.5 |
| 20260504180131 | 71 | 137 | 8.0 | 13.0 | 0.00 | 0.00 | 0.00 | 63 | 1016.4 |
| 20260504174548 | 72 | 158 | 5.0 | 11.0 | 0.00 | 0.00 | 0.00 | 63 | 1016.3 |
| 20260504173052 | 72 | 167 | 6.0 | 13.0 | 0.00 | 0.00 | 0.00 | 64 | 1016.2 |
| 20260504171549 | 73 | 176 | 3.0 | 7.0 | 0.00 | 0.00 | 0.00 | 64 | 1016.2 |
| 20260504081552 | 62 | 188 | 6.0 | 12.0 | 0.00 | 0.00 | 0.00 | 76 | 1018.8 |
| 20260504044542 | 56 | 197 | 5.0 | 9.0 | 0.00 | 0.00 | 0.00 | 76 | 1017.2 |
| 20260504043054 | 56 | 198 | 5.0 | 9.0 | 0.00 | 0.00 | 0.00 | 76 | 1017.2 |
| 20260504041551 | 56 | 198 | 5.0 | 8.0 | 0.00 | 0.00 | 0.00 | 76 | 1017.1 |
| 20260504040057 | 57 | 198 | 6.0 | 13.0 | 0.00 | 0.00 | 0.00 | 76 | 1017.1 |
| 20260504034552 | 57 | 198 | 5.0 | 10.0 | 0.00 | 0.00 | 0.00 | 76 | 1017.1 |
| 20260504033057 | 57 | 198 | 4.0 | 11.0 | 0.00 | 0.00 | 0.00 | 76 | 1017.0 |
| 20260504031552 | 57 | 199 | 4.0 | 10.0 | 0.00 | 0.00 | 0.00 | 76 | 1017.1 |
| 20260504030051 | 57 | 198 | 3.0 | 10.0 | 0.00 | 0.00 | 0.00 | 76 | 1017.0 |
| 20260504024550 | 58 | 199 | 4.0 | 7.0 | 0.00 | 0.00 | 0.00 | 76 | 1016.9 |
| 20260504023045 | 58 | 198 | 3.0 | 9.0 | 0.00 | 0.00 | 0.00 | 76 | 1016.7 |
| 20260504021552 | 58 | 199 | 2.0 | 7.0 | 0.00 | 0.00 | 0.00 | 76 | 1016.7 |
| 20260504020103 | 58 | 199 | 3.0 | 5.0 | 0.00 | 0.00 | 0.00 | 76 | 1016.9 |
| 20260504014550 | 58 | 198 | 2.0 | 6.0 | 0.00 | 0.00 | 0.00 | 76 | 1016.8 |
| 20260504013053 | 58 | 198 | 2.0 | 5.0 | 0.00 | 0.00 | 0.00 | 76 | 1016.9 |
| 20260504011548 | 57 | 198 | 1.0 | 3.0 | 0.00 | 0.00 | 0.00 | 75 | 1016.8 |
| 20260504010044 | 57 | 0 | 0.0 | 3.0 | 0.00 | 0.00 | 0.00 | 75 | 1017.1 |
| 20260504004551 | 57 | 198 | 1.0 | 3.0 | 0.00 | 0.00 | 0.00 | 75 | 1017.2 |
| 20260504003047 | 57 | 0 | 0.0 | 2.0 | 0.00 | 0.00 | 0.00 | 75 | 1017.3 |
| 20260504001553 | 57 | 198 | 1.0 | 5.0 | 0.00 | 0.00 | 0.00 | 74 | 1017.4 |
| 20260504000049 | 57 | 198 | 2.0 | 4.0 | 0.00 | 0.00 | 0.00 | 74 | 1017.5 |